Location: Clot
(41.4167°N, 2.1833°E)
Time: 03:59:22
(UTC+00:00)

Daily predictions for brighter satellites

Satellite Brightness Start Highest point End
(mag) Time Altitude Azimuth Time Altitude Azimuth Time Altitude Azimuth
CENTAUR R/B 4.2 03:14:58 28° E 03:14:58 28° E 03:19:00 10° NE
USA 238 DEB 4.1 03:54:55 51° SE 03:55:46 55° ESE 04:02:19 10° NE
USA 238 4.1 03:54:57 50° SSE 03:55:52 54° ESE 04:02:25 10° NE
USA 215 4.1 04:02:44 10° E 04:08:44 41° NNE 04:10:13 36° N
Cosmos 1867 4.0 04:20:15 53° NNE 04:20:52 56° NE 04:26:13 10° SE
Cosmos 1943 Rocket 2.1 04:23:55 83° SSE 04:24:03 84° ESE 04:29:45 10° NNE
Cosmos 2082 Rocket 3.5 04:28:44 27° S 04:28:44 27° S 04:31:20 10° S
CZ-2C R/B 4.0 04:21:18 10° SE 04:26:21 38° ENE 04:31:20 10° N
Cosmos 2297 3.6 04:32:38 74° SW 04:33:08 82° WNW 04:38:54 10° NNE
Cosmos 921 Rocket 4.5 04:38:00 21° NNE 04:40:21 36° ENE 04:44:27 10° SE
Cosmos 2034 Rocket 3.9 04:40:54 46° NNW 04:42:42 65° W 04:48:53 10° S
Cosmos 1816 Rocket 4.3 04:36:58 10° SSW 04:43:07 67° W 04:49:23 10° N
Cosmos 2278 Rocket 4.4 04:47:44 10° N 04:47:44 10° N 04:47:51 10° N
Gblst 52 Del rocket 4.5 04:43:59 53° NW 04:44:35 55° NNW 04:51:07 10° NE
BREEZE M DEB (TANK) 4.3 04:49:21 27° N 04:49:21 27° N 04:51:05 10° NE
Meteor 2-3 Rocket 3.6 04:43:07 10° SSW 04:48:45 79° W 04:54:30 10° N
Cosmos 1151 Rocket 4.4 04:48:59 10° N 04:53:06 38° ENE 04:57:11 10° SSE
CENTAUR R/B 2.7 05:02:12 40° W 05:03:38 47° NW 05:10:23 10° NNE
COSMO-SKYMED 1 2.6 05:00:11 10° SSE 05:04:31 80° ENE 05:07:44 18° N
Meteor 1-26 Rocket 4.2 04:59:34 10° NNW 05:05:31 76° W 05:11:16 10° S
Gbstr 26 Del rocket 2.9 05:05:30 55° SW 05:05:38 55° SW 05:09:48 10° SE
BREEZE-M DEB (TANK) 3.9 05:05:50 29° N 05:05:51 29° N 05:10:35 10° ENE
Cosmos 1634 Rocket 3.9 04:59:42 10° N 05:06:01 90° NNE 05:12:15 10° S
Genesis I 3.5 05:06:18 40° NNW 05:07:39 69° ENE 05:11:41 10° SE
Tsikada Rocket 4.0 05:02:23 10° SSW 05:08:25 54° W 05:14:34 10° N
SL-19 R/B 4.2 05:04:45 10° S 05:10:20 63° WSW 05:14:41 17° NNW
NOSS 3-2 (A) 4.0 05:11:18 32° NW 05:11:59 33° NW 05:17:47 10° NNE
OE (NEXTSAT) 4.3 05:12:08 64° SW 05:12:13 64° SSW 05:15:36 10° SE
Cosmos 1812 2.8 05:10:32 16° N 05:13:32 73° E 05:17:20 10° SSE
Helios 1B 4.4 05:09:41 10° S 05:13:59 75° WSW 05:16:52 21° NNW
Envisat 2.9 05:09:09 10° N 05:14:13 70° WNW 05:19:16 10° SSW
Cosmos 2344 4.1 05:13:01 30° WNW 05:15:23 36° NW 05:22:33 10° NNE
Cosmos 2098 Rocket 2.7 05:12:50 10° S 05:16:25 88° E 05:20:58 10° N
SJ-12 3.9 05:13:28 10° N 05:17:32 56° WNW 05:21:34 10° SSW
NOSS 3-2 (C) 3.5 05:15:59 29° WSW 05:18:35 48° NW 05:24:46 10° NNE
Cosmos 2263 4.4 05:12:59 10° SSW 05:18:39 75° ESE 05:24:23 10° NNE
APEX 4.2 05:19:46 24° SSW 05:19:46 24° SSW 05:21:35 10° S
Cosmos 1782 2.9 05:21:14 40° NW 05:22:04 47° W 05:25:51 10° SSW
Cosmos 968 Rocket 3.7 05:19:49 10° SW 05:24:45 45° WNW 05:29:41 10° N
Meteor 1-31 Rocket 2.7 05:21:37 10° N 05:25:28 61° WNW 05:29:19 10° SSW
BREEZE-M DEB (TANK) 4.3 05:11:56 19° WNW 05:26:16 72° SW 05:31:43 10° SE
Cosmos 1862 3.2 05:22:58 10° S 05:26:54 89° E 05:30:52 10° N
BREEZE-M DEB (TANK) 4.2 05:10:02 10° SW 05:27:00 69° SSE 05:31:09 10° ENE
SL-8 R/B 4.5 05:24:51 26° NW 05:27:02 41° NNE 05:31:34 10° E
ADEOS 3.6 05:24:14 10° NNE 05:29:29 82° ESE 05:34:42 10° SSW
CZ-2C R/B 3.6 05:29:02 10° NNE 05:33:50 58° E 05:38:49 10° S
Meteor PRIRODA 4.3 05:30:55 10° NNE 05:34:29 56° E 05:38:02 10° S
Cosmos 2369 Rocket 2.2 05:29:19 10° SW 05:34:48 59° WNW 05:40:21 10° NNE
CBERS 1 LM4 rocket 4.5 05:30:49 10° N 05:35:32 53° WNW 05:40:23 10° SSW
Cosmos 1354 Rocket 4.5 05:31:45 10° S 05:36:57 66° ESE 05:42:13 10° NNE
CZ-4B R/B 3.4 05:33:51 10° NNE 05:37:21 52° E 05:40:51 10° S
CZ-3 R/B 4.4 05:38:39 10° SSW 05:43:22 13° S 05:46:31 10° SSE
H-2A R/B 3.6 05:40:20 10° NNW 05:43:25 25° WNW 05:46:31 10° SW
USA 238 DEB 4.3 05:42:27 16° W 05:47:00 34° NW 05:53:10 10° NNE
USA 238 4.3 05:42:29 16° W 05:47:06 34° NW 05:53:17 10° NNE
SJ 16-02 3.1 05:46:14 10° SSE 05:50:14 36° ESE 05:54:16 10° NE
USA 215 3.3 05:44:57 10° SE 05:51:27 72° SW 05:57:33 12° NW
SKYMED 2 4.4 05:48:53 10° SSW 05:52:41 29° W 05:56:19 11° NW
Cosmos 1500 Rocket 4.5 05:55:31 10° S 05:59:50 54° E 06:04:13 10° NNE
Meteor 2-8 Rocket 4.4 05:56:40 10° NNW 06:02:46 67° W 06:08:47 10° S
Cosmos 1656 Rocket 3.8 05:59:20 10° SW 06:04:30 46° WNW 06:09:45 10° NNE
CZ-2C R/B 3.6 06:01:58 10° SSW 06:06:40 28° W 06:11:20 10° NW
H-2A R/B 3.9 06:02:30 10° NNE 06:06:56 33° E 06:11:20 10° SSE
Meteor 1-27 Rocket 4.0 06:02:26 10° N 06:08:05 76° E 06:13:49 10° SSE
Cosmos 1943 Rocket 3.6 06:05:33 12° W 06:08:32 17° NW 06:12:06 10° N
Okean 3 Rocket 4.2 06:04:58 10° SW 06:09:06 35° WNW 06:13:18 10° N
DMSP B5D2-2 4.1 06:06:04 10° S 06:11:12 61° W 06:16:23 10° NNW
H-2A R/B 2.0 06:10:34 10° S 06:14:46 77° WSW 06:19:06 10° NNW
Cosmos 921 Rocket 4.4 06:15:09 10° NW 06:18:21 20° W 06:21:35 10° SW
Cosmos 1503 Rocket 4.3 06:14:36 10° SW 06:19:36 44° WNW 06:24:41 10° N
Cosmos 1340 Rocket 2.9 06:15:47 10° S 06:19:42 82° E 06:23:41 10° NNE
CZ-4C R/B 4.4 06:18:46 10° SW 06:20:54 17° W 06:23:02 10° NW
USA 32 4.4 06:15:58 10° N 06:21:12 70° E 06:26:25 10° SSE
Cosmos 783 Rocket 4.5 06:16:04 10° NNW 06:21:17 82° WSW 06:26:28 10° SSE
DNEPR-1 R/B 4.2 06:17:30 10° NW 06:22:21 61° WSW 06:28:11 10° SSE
Cosmos 1939 Rocket 2.8 06:19:56 10° N 06:23:49 58° WNW 06:27:37 10° SSW
CZ-4B R/B 1.7 06:21:28 10° SSE 06:24:48 69° ENE 06:28:06 10° N
SMAP 3.0 06:20:50 10° N 06:25:30 77° WNW 06:30:08 10° SSW
FALCON 9 R/B 4.1 06:18:45 10° W 06:36:22 45° SSW 06:41:44 10° SE
